Location: Mississauga
(43.5802°N, 79.6166°W)
Time: 23:32:24
(UTC-04:00)

Cosmos 1437 Rocket - Visible Passes

Search period start: 31 July 2015 00:00
Search period end: 10 August 2015 00:00
Orbit: 521 x 560 km, 81.2° (Epoch: 31 July)

Date Brightness Start Highest point End Pass type
(mag) Time Alt. Az. Time Alt. Az. Time Alt. Az.
31 Jul 4.3 21:30:23 10° NNW 21:33:57 35° W 21:37:29 10° SSW visible
01 Aug 4.4 21:23:08 10° NNW 21:26:41 34° W 21:30:11 10° SSW visible
02 Aug 4.5 21:15:53 10° NNW 21:19:24 33° W 21:22:53 10° SSW visible
03 Aug 4.6 21:08:38 10° NNW 21:12:08 32° W 21:15:34 10° SSW visible
04 Aug 4.7 21:01:23 10° NNW 21:04:51 31° W 21:08:16 10° SSW visible
